Regional Weather Roundup
Issued by NWS Sioux Falls, SD

Home | Current Version | Previous Version | Text Only | Print | Product List | Glossary On
Versions: 1 2 3 4 5 6 7 8 9 10 11 12 13 14 15 16 17 18 19 20 21 22 23 24 25 26 27 28 29 30 31 32 33 34 35 36 37 38 39 40 41 42 43 44 45 46 47 48 49 50
000
ASUS43 KFSD 270010
RWRFSD

WEATHER ROUNDUP FOR SE SOUTH DAKOTA/SW MINNESOTA/NW IOWA
NATIONAL WEATHER SERVICE SIOUX FALLS SD
700 PM CDT THU MAR 26 2015

NOTE: "FAIR" INDICATES FEW OR NO CLOUDS BELOW 12,000 FEET WITH NO
SIGNIFICANT WEATHER AND OR OBSTRUCTIONS TO VISIBILITY.


SDZ038>040-050-052>070-270100-
SOUTHEAST SOUTH DAKOTA

CITY           SKY/WX    TMP DP  RH WIND       PRES   REMARKS
CHAMBERLAIN    CLOUDY    35  27  73 N6        30.21R
6HR MIN TEMP:  32; 6HR MAX TEMP:  36; 6HR PCP:  0.01;

HURON          PTCLDY    36  17  46 N12       30.21R
6HR MIN TEMP:  35; 6HR MAX TEMP:  42;

MADISON        FAIR      32  16  51 N17       30.16R WCI  21
MITCHELL       PTCLDY    38  20  48 N13       30.20R
6HR MIN TEMP:  36; 6HR MAX TEMP:  41; 6HR PCP: TRACE;

SIOUX FALLS    MOCLDY    38  19  46 N18       30.15R
6HR MIN TEMP:  38; 6HR MAX TEMP:  40;

WINNER         CLOUDY    36  29  75 N8        30.21R
YANKTON        CLOUDY    37  25  60 N14       30.18S
$$

MNZ071-072-080-081-089-090-097-098-270100-
SOUTHWEST MINNESOTA

CITY           SKY/WX    TMP DP  RH WIND       PRES   REMARKS
FAIRMONT       CLOUDY    30  18  59 NW17      30.14R WCI  18
JACKSON        CLOUDY    32  19  59 N10G23    30.15R WCI  24
LUVERNE        PTCLDY    36  19  51 N12G18    30.16R
MARSHALL       MOCLDY    30  14  51 N16       30.19R WCI  19
6HR MIN TEMP:  30; 6HR MAX TEMP:  34;

MONTEVIDEO     CLEAR     34  18  51 NE17      30.20R WCI  23
PIPESTONE      CLEAR     34  18  51 N12G17    30.14S WCI  25
REDWOOD FALLS  CLOUDY    30  18  60 NW13G20   30.18R WCI  20
TRACY          CLOUDY    31  20  63 N20       30.17R WCI  18
WINDOM         CLOUDY    30  19  64 N17       30.15R WCI  18
WORTHINGTON    CLOUDY    30  16  55 N21       30.16R WCI  17
$$

IAZ001>003-012>014-020>022-031-032-NEZ013-014-SDZ071-270100-
NORTHWEST IOWA

CITY           SKY/WX    TMP DP  RH WIND       PRES   REMARKS
CHEROKEE       CLOUDY    37  23  57 N13       30.14S
DENISON        CLOUDY    36  34  93 W8        30.12R
ESTHERVILLE    CLOUDY    31  21  66 N16       30.14R WCI  20
LE MARS        CLOUDY    39  25  56 N10       30.15S
ORANGE CITY    CLOUDY    37  21  52 N9G18     30.14R
SHELDON        CLOUDY    36  23  60 N16       30.13R
SIOUX CITY     CLOUDY    38  28  67 NW13      30.16S
6HR MIN TEMP:  38; 6HR MAX TEMP:  45;

SPENCER        MOCLDY    34  20  56 N17       30.14R WCI  23
6HR MIN TEMP:  34; 6HR MAX TEMP:  40;

STORM LAKE     CLOUDY    36  23  60 N15       30.13R
$$

ABBREVIATIONS USED IN REMARKS
   TC - TEMPERATURE IN CELSIUS
  WCI - WIND CHILL INDEX
   HX - HEAT INDEX
  VSB - VISIBILITY



USA.gov is the U.S. government's official web portal to all federal, state and local government web resources and services.